Location: Csohesd
(46.2500°N, 22.6167°E)
Time: 06:09:03
(UTC+00:00)

SL-8 R/B - Pass Details

Date: 21 October 2021
Orbit: 656 x 667 km, 48.4° (Epoch: 04 December)

Event Time Altitude Azimuth Distance (km) Brightness Sun altitude
Rises 17:59:06 0° 266° (W) 2,984 8.3 -26.0°
Reaches altitude 10° 18:01:27 10° 269° (W) 2,074 7.2 -26.4°
Enters shadow 18:05:46 64° 315° (NW) 731 4.0 -27.1°
